Location: Helsinki
(60.1699°N, 24.9384°E)
Time: 21:33:15
(UTC+03:00)

A-11 Canister half - Pass Details

Date: 30 May 2024
Orbit: 1525 x 1683 km, 47.3° (Epoch: 14 June)

Event Time Altitude Azimuth Distance (km) Brightness Sun altitude
Rises 01:23:19 0° 269° (W) 4,720 11.5 -8.0°
Reaches altitude 10° 01:26:47 10° 260° (W) 3,755 10.9 -8.0°
Maximum altitude 01:34:39 31° 204° (SSW) 2,537 9.7 -8.0°
Drops below altitude 10° 01:42:43 10° 148° (SSE) 3,853 10.6 -7.9°
Sets 01:46:20 0° 138° (SE) 4,861 11.2 -7.8°
